Weather History for KMCB - January, 2013

Change the Weather History Date:

Thursday, January 10, 2013

  Actual Average Record
Temperature  
Mean Temperature 64 °F -  
Max Temperature 69 °F 56 °F 79 °F (1974)
Min Temperature 60 °F 34 °F 7 °F (1962)
Growing Degree Days 14 (Base 50)    
Moisture  
Dew Point 64 °F    
Average Humidity 97    
Maximum Humidity 100    
Minimum Humidity 83    
Precipitation  
Precipitation 1.07 in - - ()
Sea Level Pressure  
Sea Level Pressure 30.09 in    
Wind  
Wind Speed 8 mph (SE)    
Max Wind Speed 23 mph    
Max Gust Speed 31 mph    
Visibility 6 miles    
Events Rain , Thunderstorm    
Averages and records for this station are not official NWS values.
T = Trace of Precipitation, MM = Missing Value Source: NWS Daily Summary

Daily Weather History Graph

Daily Weather History Graph

Search for Another Location

Airport or City:

Trip Planner

Search our weather history database for the weather conditions in past years. The results will help you decide how hot, cold, wet, or windy it might be!

Date:

Astronomy

Jan. 10, 2013 Rise Set
Actual Time 7:01 AM CST 5:17 PM CST
Civil Twilight 6:35 AM CST 5:44 PM CST
Nautical Twilight 6:05 AM CST 6:14 PM CST
Astronomical Twilight 5:35 AM CST 6:43 PM CST
Moon 5:41 AM CST (1/10) 4:24 PM CST (1/10)
Length of Visible Light 11h 09m
Length of Day
10h 16m
Waning Crescent, 2% of the Moon is Illuminated
Jan 10
Waning Crescent
Jan 11
New
Jan 18
First Quarter
Jan 26
Full
Feb 3
Last Quarter

Hourly Weather History & Observations

Time (CST) Temp. Dew Point Humidity Pressure Visibility Wind Dir Wind Speed Gust Speed Precip Events Conditions
12:17 AM 66.2 °F 66.2 °F 100% 30.17 in 3.0 mi Variable 4.6 mph - N/A   Overcast
12:26 AM 66.2 °F 66.2 °F 100% 30.16 in 2.5 mi ESE 5.8 mph - N/A   Overcast
12:53 AM 66.9 °F 66.0 °F 97% 30.15 in 3.0 mi SE 6.9 mph - 0.01 in   Overcast
1:00 AM 66.2 °F 66.2 °F 100% 30.16 in 2.0 mi ESE 4.6 mph - 0.08 in Rain Heavy Rain
1:12 AM 66.2 °F 66.2 °F 100% 30.16 in 3.0 mi ESE 5.8 mph - 0.09 in Rain Rain
1:38 AM 66.2 °F 66.2 °F 100% 30.16 in 2.0 mi SE 8.1 mph - 0.10 in   Overcast
1:53 AM 66.9 °F 66.9 °F 100% 30.14 in 2.5 mi SE 9.2 mph - 0.10 in   Overcast
2:12 AM 66.2 °F 66.2 °F 100% 30.15 in 4.0 mi SE 8.1 mph - N/A   Overcast
2:35 AM 68.0 °F 66.2 °F 94% 30.14 in 4.0 mi SSE 8.1 mph - N/A   Overcast
2:53 AM 68.0 °F 66.9 °F 96% 30.11 in 4.0 mi ESE 11.5 mph 20.7 mph N/A   Overcast
3:53 AM 68.0 °F 68.0 °F 100% 30.11 in 2.0 mi SE 9.2 mph - 0.00 in Rain Light Rain
4:11 AM 68.0 °F 66.2 °F 94% 30.11 in 3.0 mi SE 8.1 mph - 0.00 in   Overcast
4:53 AM 68.0 °F 66.9 °F 96% 30.08 in 7.0 mi SE 8.1 mph 19.6 mph 0.00 in   Overcast
5:16 AM 68.0 °F 66.2 °F 94% 30.09 in 5.0 mi SE 9.2 mph - N/A   Overcast
5:53 AM 68.0 °F 66.9 °F 96% 30.07 in 8.0 mi ESE 8.1 mph - N/A   Overcast
6:40 AM 68.0 °F 66.2 °F 94% 30.11 in 6.0 mi Variable 5.8 mph - N/A   Overcast
6:53 AM 68.0 °F 66.9 °F 96% 30.10 in 10.0 mi Variable 4.6 mph - N/A   Overcast
7:15 AM 69.8 °F 66.2 °F 88% 30.12 in 7.0 mi Variable 5.8 mph - N/A   Overcast
7:53 AM 69.1 °F 66.9 °F 93% 30.12 in 8.0 mi SE 5.8 mph - N/A   Overcast
8:14 AM 69.8 °F 66.2 °F 88% 30.14 in 6.0 mi SE 5.8 mph - N/A Thunderstorm Overcast
8:29 AM 69.8 °F 66.2 °F 88% 30.15 in 6.0 mi SSE 6.9 mph - N/A   Overcast
8:37 AM 69.8 °F 64.4 °F 83% 30.16 in 8.0 mi SSE 10.4 mph 17.3 mph 0.00 in Rain Light Rain
8:53 AM 68.0 °F 64.9 °F 90% 30.15 in 9.0 mi SE 6.9 mph - 0.02 in Rain Light Rain
9:50 AM 66.2 °F 66.2 °F 100% 30.15 in 4.0 mi Variable 6.9 mph - 0.11 in Rain , Thunderstorm Thunderstorms and Rain
9:53 AM 66.9 °F 66.0 °F 97% 30.14 in 4.0 mi ESE 8.1 mph - 0.12 in Rain , Thunderstorm Thunderstorms and Rain
10:01 AM 66.2 °F 66.2 °F 100% 30.14 in 4.0 mi East 9.2 mph - 0.02 in Rain , Thunderstorm Rain
10:14 AM 66.2 °F 66.2 °F 100% 30.12 in 1.8 mi East 11.5 mph 17.3 mph 0.10 in Rain , Thunderstorm Heavy Rain
10:25 AM 66.2 °F 66.2 °F 100% 30.11 in 2.5 mi ESE 9.2 mph 20.7 mph 0.14 in Rain , Thunderstorm Rain
10:29 AM 66.2 °F 66.2 °F 100% 30.11 in 3.0 mi ESE 10.4 mph 17.3 mph 0.15 in Rain , Thunderstorm Rain
10:36 AM 68.0 °F 66.2 °F 94% 30.11 in 2.5 mi SSE 17.3 mph 28.8 mph 0.16 in Rain , Thunderstorm Rain
10:39 AM 68.0 °F 66.2 °F 94% 30.12 in 2.5 mi SSE 23.0 mph 31.1 mph 0.17 in Rain Rain
10:46 AM 66.2 °F 64.4 °F 94% 30.13 in 3.0 mi SSE 20.7 mph 31.1 mph 0.19 in Rain Rain
10:53 AM 66.9 °F 64.9 °F 93% 30.12 in 4.0 mi South 16.1 mph 29.9 mph 0.21 in Rain , Thunderstorm Thunderstorms and Rain
11:03 AM 66.2 °F 66.2 °F 100% 30.14 in 3.0 mi SSE 13.8 mph 23.0 mph 0.03 in Rain , Thunderstorm Rain
11:25 AM 66.2 °F 64.4 °F 94% 30.15 in 5.0 mi SSE 12.7 mph - 0.10 in Rain , Thunderstorm Thunderstorms and Rain
11:46 AM 64.4 °F 64.4 °F 100% 30.14 in 4.0 mi SSE 15.0 mph 21.9 mph 0.17 in Rain , Thunderstorm Thunderstorms and Rain
11:53 AM 64.9 °F 64.0 °F 97% 30.13 in 4.0 mi SSE 10.4 mph 21.9 mph 0.19 in Rain , Thunderstorm Thunderstorms and Rain
12:01 PM 64.4 °F 62.6 °F 94% 30.14 in 4.0 mi SSE 8.1 mph - 0.02 in Rain Rain
12:09 PM 64.4 °F 62.6 °F 94% 30.15 in 5.0 mi SSE 8.1 mph - 0.05 in Rain , Thunderstorm Thunderstorms and Rain
12:37 PM 64.4 °F 62.6 °F 94% 30.13 in 4.0 mi SSE 6.9 mph - 0.14 in Rain , Thunderstorm Rain
12:53 PM 64.0 °F 63.0 °F 96% 30.10 in 4.0 mi East 6.9 mph - 0.18 in Rain , Thunderstorm Rain
1:20 PM 62.6 °F 62.6 °F 100% 30.07 in 4.0 mi SE 8.1 mph - 0.09 in Rain , Thunderstorm Rain
1:25 PM 62.6 °F 62.6 °F 100% 30.07 in 4.0 mi SE 8.1 mph - 0.11 in Rain , Thunderstorm Thunderstorms and Rain
1:41 PM 62.6 °F 62.6 °F 100% 30.08 in 3.0 mi SE 4.6 mph - 0.16 in Rain , Thunderstorm Thunderstorms and Rain
1:48 PM 62.6 °F 62.6 °F 100% 30.09 in 1.8 mi SE 8.1 mph - 0.19 in Rain , Thunderstorm Thunderstorms and Rain
1:53 PM 63.0 °F 63.0 °F 100% 30.07 in 2.0 mi Variable 5.8 mph - 0.21 in Rain , Thunderstorm Thunderstorms and Rain
2:07 PM 62.6 °F 62.6 °F 100% 30.03 in 5.0 mi East 10.4 mph 16.1 mph 0.02 in Rain , Thunderstorm Light Rain
2:17 PM 62.6 °F 62.6 °F 100% 29.97 in 9.0 mi East 11.5 mph 19.6 mph 0.02 in Rain Light Rain
2:31 PM 62.6 °F 62.6 °F 100% 29.99 in 10.0 mi ESE 13.8 mph 21.9 mph 0.02 in   Mostly Cloudy
2:53 PM 63.0 °F 62.1 °F 97% 29.98 in 9.0 mi SE 11.5 mph - 0.02 in   Scattered Clouds
3:40 PM 62.6 °F 62.6 °F 100% 30.02 in 10.0 mi SSE 4.6 mph - N/A   Mostly Cloudy
3:53 PM 63.0 °F 62.1 °F 97% 30.02 in 10.0 mi South 6.9 mph - N/A   Overcast
4:53 PM 63.0 °F 62.1 °F 97% 30.01 in 10.0 mi SE 3.5 mph - N/A   Mostly Cloudy
5:21 PM 62.6 °F 62.6 °F 100% 30.02 in 10.0 mi SSE 4.6 mph - N/A   Scattered Clouds
5:53 PM 61.0 °F 61.0 °F 100% 30.00 in 10.0 mi South 3.5 mph - N/A   Mostly Cloudy
6:06 PM 60.8 °F 60.8 °F 100% 30.01 in 10.0 mi SSE 3.5 mph - N/A   Scattered Clouds
6:53 PM 61.0 °F 61.0 °F 100% 29.99 in 10.0 mi SSE 4.6 mph - N/A   Clear
7:48 PM 60.8 °F 60.8 °F 100% 30.03 in 10.0 mi South 6.9 mph - N/A   Scattered Clouds
7:53 PM 61.0 °F 61.0 °F 100% 30.01 in 10.0 mi South 6.9 mph - N/A   Scattered Clouds
8:01 PM 60.8 °F 60.8 °F 100% 30.03 in 10.0 mi South 6.9 mph - 0.01 in   Mostly Cloudy
8:53 PM 62.1 °F 61.0 °F 96% 30.04 in 10.0 mi South 9.2 mph - 0.01 in   Overcast
9:53 PM 63.0 °F 62.1 °F 97% 30.05 in 10.0 mi South 12.7 mph - N/A   Overcast
11:38 PM 62.6 °F 62.6 °F 100% 30.07 in 2.5 mi South 11.5 mph - 0.00 in Rain Light Rain
11:45 PM 62.6 °F 62.6 °F 100% 30.07 in 4.0 mi South 11.5 mph - 0.00 in   Overcast
11:53 PM 63.0 °F 62.1 °F 97% 30.06 in 5.0 mi South 10.4 mph - 0.00 in   Overcast